Regional Weather Roundup
Issued by NWS

Home | Current Version | Previous Version | Graphics & Text | Print | Product List | Glossary On
Versions: 1 2 3 4 5 6 7 8 9 10 11 12 13 14 15 16 17 18 19 20 21 22 23 24 25 26 27 28 29 30 31 32 33 34 35 36 37 38 39 40 41 42 43 44 45 46 47 48 49 50
000
ASUS43 KOAX 211802
RWRNE

WEATHER ROUNDUP FOR NEBRASKA
NATIONAL WEATHER SERVICE OMAHA NE
1200 PM CST WED FEB 21 2018

NOTES: SATELLITE DATA IS BEING USED TO AUGMENT CLOUD COVER ABOVE
       12000 FEET.
       "FAIR" INDICATES FEW OR NO CLOUDS BELOW 12,000 FEET WITH NO
       SIGNIFICANT WEATHER AND/OR OBSTRUCTIONS TO VISIBILITY.


NEZ001>004-019>022-054>056-211900-
NEBRASKA PANHANDLE

CITY           SKY/WX    TMP DP  RH WIND       PRES   REMARKS
SCOTTSBLUFF    MIX PCPN   9   2  73 E12       30.27F WCI  -6
6HR MIN TEMP: -11; 6HR MAX TEMP:   9; 6HR PCP: TRACE;

ALLIANCE       FAIR      16   9  74 S9        30.27F WCI   4
6HR MIN TEMP: -23; 6HR MAX TEMP:  16;

CHADRON        FAIR       2  -8  63 CALM      30.31R
6HR MIN TEMP: -21; 6HR MAX TEMP:   2;

GORDON         FAIR      12   1  62 W5        30.30S WCI   4
6HR MIN TEMP: -17; 6HR MAX TEMP:  12;

KIMBALL        FAIR      22   6  51 S17       30.22F WCI   8
SIDNEY         FAIR      26   5  40 S18G25    30.29S WCI  13
6HR MIN TEMP: -10; 6HR MAX TEMP:  27;

$$

NEZ057>060-069>072-079>082-211900-
SOUTHWEST NEBRASKA

CITY           SKY/WX    TMP DP  RH WIND       PRES   REMARKS
NORTH PLATTE   FAIR      17   4  56 S8        30.46F WCI   7
6HR MIN TEMP:  -9; 6HR MAX TEMP:  17;

IMPERIAL       FAIR      19   6  57 SE10      30.40F WCI   7
6HR MIN TEMP:  -7; 6HR MAX TEMP:  19;

LEXINGTON      FAIR      21   5  50 SE8       30.50F WCI  11
MCCOOK         FAIR      22   5  48 SE8       30.47F WCI  12
6HR MIN TEMP:   1; 6HR MAX TEMP:  22;

OGALLALA       FAIR      21   9  59 S10       30.40S WCI  10
$$

NEZ005>010-023>029-035>040-094-211900-
NORTH CENTRAL NEBRASKA

CITY           SKY/WX    TMP DP  RH WIND       PRES   REMARKS
VALENTINE      FAIR      14   3  61 S7        30.44S WCI   4
6HR MIN TEMP: -16; 6HR MAX TEMP:  14;

AINSWORTH      FAIR      14   4  65 S10       30.45F WCI   1
BROKEN BOW     FAIR      16   2  54 SE7       30.49F WCI   6
6HR MIN TEMP:  -6; 6HR MAX TEMP:  17;

O`NEILL        FAIR      15   2  56 S8        30.53F WCI   3
ORD            FAIR      16   4  59 SW9       30.54S WCI   4
6HR MIN TEMP:  -6; 6HR MAX TEMP:  17; 6HR PCP: TRACE;

THEDFORD       FAIR      20  10  65 SE12      30.43R WCI   8
$$

NEZ041-046>049-061>064-073>077-083>087-211900-
SOUTH CENTRAL NEBRASKA

CITY           SKY/WX    TMP DP  RH WIND       PRES   REMARKS
GRAND ISLAND   FAIR      19   2  47 CALM      30.57F
6HR MIN TEMP:   3; 6HR MAX TEMP:  20;

AURORA         FAIR      20   2  45 CALM      30.57F
HASTINGS       FAIR      20   0  41 CALM      30.55F
6HR MIN TEMP:   1; 6HR MAX TEMP:  21;

HEBRON         FAIR      23   2  41 NE5       30.60S WCI  16
HOLDREGE       FAIR      20   3  47 SE3       30.51F
KEARNEY        FLURRIES  24   3  40 SE5       30.54F WCI  18
YORK           FAIR      21   3  45 CALM      30.59F
$$

NEZ011>018-030>034-042>045-211900-
NORTHEAST NEBRASKA

CITY           SKY/WX    TMP DP  RH WIND       PRES   REMARKS
NORFOLK        FAIR      16   6  65 VRB5      30.58S WCI   9
6HR MIN TEMP:  -2; 6HR MAX TEMP:  16;

ALBION         FAIR      18   3  51 SE6       30.57F WCI  10
BLAIR          FAIR      19   9  66 NE3       30.62F
COLUMBUS       FAIR      22   8  55 CALM      30.62F
FREMONT        FAIR      19   8  62 NE3       30.63F
TEKAMAH        FAIR      17   8  67 CALM      30.66F
6HR MIN TEMP:   5; 6HR MAX TEMP:  18;

WAYNE          FAIR      16   5  63 SE6       30.61S WCI   7
$$

NEZ050>053-065>068-078-088>093-211900-
SOUTHEAST NEBRASKA

CITY           SKY/WX    TMP DP  RH WIND       PRES   REMARKS
LINCOLN        FAIR      21   5  50 NE7       30.64F WCI  12
6HR MIN TEMP:   6; 6HR MAX TEMP:  22;

OMAHA EPPLEY   PTSUNNY   21   8  57 E6        30.65F WCI  13
6HR MIN TEMP:   7; 6HR MAX TEMP:  21;

BEATRICE       FAIR      22   7  53 E8        30.61S WCI  12
FALLS CITY     FAIR      21  11  65 NE10      30.62F WCI  10
6HR MIN TEMP:  12; 6HR MAX TEMP:  21;

NEBRASKA CITY  FAIR      20  11  68 NE6       30.63S WCI  12
PLATTSMOUTH    FAIR      19   8  62 NE5       30.63S WCI  12
$$

NEZ044-045-051>053-067-211900-
OMAHA AREA

CITY           SKY/WX    TMP DP  RH WIND       PRES   REMARKS
OMAHA EPPLEY   PTSUNNY   21   8  57 E6        30.65F WCI  13
6HR MIN TEMP:   7; 6HR MAX TEMP:  21;

BLAIR          FAIR      19   9  66 NE3       30.62F
FREMONT        FAIR      19   8  62 NE3       30.63F
MILLARD        FAIR      21   6  51 CALM      30.64F
OFFUTT AFB     FAIR      21   6  52 NE8       30.64F WCI  11
PLATTSMOUTH    FAIR      19   8  62 NE5       30.63S WCI  12
WAHOO          FAIR      19   7  60 E3        30.63F
$$




USA.gov is the U.S. government's official web portal to all federal, state and local government web resources and services.